Overview Statistics Trail Chart Weather Telemetry Raw packets
 

This is the latest recevied weather packets stored in our database for station/object KK4MOR. If no packets are shown the sender has not sent any weather packets the latest 10 day(s).

<< 24 25 26 27 28 29 30 >>
Time Temp. Humidity Pressure Rain* Wind** Luminosity Snow
1788044417 30.56° C 62% 1014.8 hPa 0 mm - - -
1788043516 31.67° C 58% 1014.7 hPa 0 mm - - -
1788042617 31.11° C 58% 1014.7 hPa 0 mm - - -
1788041717 31.67° C 62% 1014.7 hPa 0 mm - - -
1788040814 32.78° C 52% 1014.7 hPa 0 mm - - -
1788039917 32.78° C 53% 1014.8 hPa 0 mm - - -
1788039011 33.33° C 51% 1015 hPa 0 mm - - -
1788038111 32.78° C 50% 1015 hPa 0 mm - - -
1788037220 33.33° C 54% 1015.1 hPa 0 mm - - -
1788036308 32.78° C 50% 1015.2 hPa 0 mm - - -
1788035405 32.78° C 51% 1015.3 hPa 0 mm - - -
1788034514 32.78° C 54% 1015.6 hPa 0 mm - - -
1788033602 32.22° C 52% 1015.7 hPa 0 mm - - -
1788032761 32.22° C 55% 1015.8 hPa 0 mm - - -
1788031858 31.67° C 57% 1015.8 hPa 0 mm - - -
1788030957 31.67° C 58% 1016 hPa 0 mm - - -
1788030066 31.11° C 58% 1016.1 hPa 0 mm - - -
1788029151 30.56° C 57% 1016.3 hPa 0 mm - - -
1788028250 30° C 64% 1016.5 hPa 0 mm - - -
1788027349 30° C 65% 1016.5 hPa 0 mm - - -
1788026452 30.56° C 60% 1016.5 hPa 0 mm - - -
1788025548 30.56° C 61% 1016.7 hPa 0 mm - - -
1788024647 30.56° C 62% 1017 hPa 0 mm - - -
1788023744 30° C 64% 1017.2 hPa 0 mm - - -
1788022841 29.44° C 70% 1017.4 hPa 0 mm - - -

* Rain latest hour (hover to see other rain measurements)
** Current wind speed in m/s (hover to see current wind gust speed)